Regional Weather Roundup
Issued by NWS Albany, NY

Home | Current Version | Previous Version | Text Only | Print | Product List | Glossary On
Versions: 1 2 3 4 5 6 7 8 9 10 11 12 13 14 15 16 17 18 19 20 21 22 23 24 25 26 27 28 29 30 31 32 33 34 35 36 37 38 39 40 41 42 43 44 45 46 47 48 49 50
000
ASUS41 KALY 292310
RWRALY

NEW YORK STATE HOURLY WEATHER ROUNDUP
NATIONAL WEATHER SERVICE ALBANY NY
600 PM EST THU JAN 29 2015

NOTE: "FAIR" INDICATES FEW OR NO CLOUDS BELOW 12,000 FEET WITH NO
SIGNIFICANT WEATHER AND/OR NO OBSTRUCTIONS TO VISIBILITY.

NYZ032-033-038>043-046>054-057>066-NYZ062>081-300000-
EAST


CITY           SKY/WX    TMP DP  RH WIND       PRES   REMARKS
ALBANY         CLOUDY    29   6  38 S12       30.05R WCI  19
GLENS FALLS    CLOUDY    23   9  55 CALM      30.04F
POUGHKEEPSIE   CLOUDY    32   9  38 S3        30.10F
NEWBURGH       MOCLDY    28  16  59 VRB6      30.09F WCI  22
MONTGOMERY     CLOUDY    27  11  51 CALM      30.07F
WHITE PLAINS   CLOUDY    28  20  71 SE6       30.11F WCI  22
ISLIP          CLOUDY    30  21  69 SE5       30.12F WCI  25
NEW YORK CITY  CLOUDY    32  24  72 S10       30.14F WCI  24
CENTRAL PARK   CLOUDY    32  23  69 VRB3      30.15S
$$

NYZ005>009-017-018-044>046-055-056-300000-
CENTRAL


CITY           SKY/WX    TMP DP  RH WIND       PRES   REMARKS
FULTON         LGT SNOW  29  24  82 S10G22    29.83S WCI  20
SYRACUSE       FLURRIES  32  18  56 S21G33    29.83F WCI  20
ROME           CLOUDY    28  10  46 SE12      29.94R WCI  18
ELMIRA         CLOUDY    28  20  71 SW12      29.86S WCI  18
BINGHAMTON     CLOUDY    28   4  35 S18G26    29.85S WCI  15
MONTICELLO     CLOUDY    25   7  46 SE12      30.00F WCI  14
$$

NYZ026>034-041>043-300000-
NORTH


CITY           SKY/WX    TMP DP  RH WIND       PRES   REMARKS
WATERTOWN      LGT SNOW  31  25  78 S14G25    29.82R VSB 1   WCI  21
FORT DRUM      NOT AVBL
MASSENA        CLOUDY    26  20  77 E8        29.81F WCI  18
SARANAC LAKE   LGT SNOW  27  21  78 SE8       29.79F WCI  19
PLATTSBURGH    CLOUDY    27  12  53 SE18G29   29.93F WCI  14
$$

NYZ001>004-010>016-019>021-300000-
WEST


CITY           SKY/WX    TMP DP  RH WIND       PRES   REMARKS
NIAGARA FALLS  LGT SNOW  32  31  96 S10       29.71S FOG     WCI  24
BUFFALO        LGT SNOW  33  31  92 S10       29.72S FOG     WCI  25
DUNKIRK        LGT SNOW  33  32  96 S18G24    29.74R FOG     WCI  22
JAMESTOWN      CLOUDY    30  28  93 S9        29.71R WCI  22
WELLSVILLE     FLURRIES  25  20  81 S14G28    29.74F WCI  13
ROCHESTER      LGT SNOW  32  25  75 S8        29.76S WCI  25
PENN YAN       FLURRIES  28  21  75 S13G22    29.81S WCI  17
$$

             KEY
       WCI = WIND CHILL INDEX
       VSB = VISIBILITY
       HX  = HEAT INDEX
$$


USA.gov is the U.S. government's official web portal to all federal, state and local government web resources and services.